Location: Newark
(41.6500°N, 71.4833°W)
Time: 19:30:57
(UTC+00:00)

Transit 2A Rocket - Pass Details

Date: 29 January 2020
Orbit: 591 x 912 km, 66.7° (Epoch: 24 February)

Event Time Altitude Azimuth Distance (km) Brightness Sun altitude
Rises 16:39:41 0° 339° (NNW) 3,010 7.6 30.2°
Reaches altitude 10° 16:42:16 10° 353° (N) 2,144 6.9 30.3°
Maximum altitude 16:46:20 26° 49° (NE) 1,429 6.3 30.3°
Drops below altitude 10° 16:50:41 10° 105° (ESE) 2,311 7.8 30.4°
Sets 16:53:34 0° 118° (ESE) 3,296 8.6 30.4°
